This demonstration page uses our WeatherBlox Daily Observations layout. Learn more.

Left ArrowRight Arrow

41.55636, -103.73856

Hourly Observations for April 28, 2018

Temp ( °F °C ) Dew Point ( °F °C ) Humidity (%) Winds ( mph kmh ) Pressure ( in mb ) Visibility ( mi km ) Precip ( " mm )
12:58 am 00:58 Clear 44 6.4 32 0.1 64 64 SE 13 20 30.10 1019 10 16 N/A
1:58 am 01:58 Clear 40 4.2 32 undefined 74 74 SSE 10 17 30.14 1021 10 16 N/A
2:58 am 02:58 Clear 38 3.6 31 -0.7 74 74 SE 12 19 30.13 1020 10 16 N/A
3:58 am 03:58 Clear 37 2.5 30 -0.9 79 79 SSE 7 11 30.15 1021 10 16 N/A
4:58 am 04:58 Clear 35 1.7 30 -1.3 81 81 S 5 7 30.16 1021 10 16 N/A
5:58 am 05:58 Sunny 36 2.4 30 -1.1 78 78 SSE 10 17 30.15 1021 10 16 N/A
6:58 am 06:58 Sunny 38 3.1 33 0.3 82 82 S 12 19 30.03 1017 10 16 N/A
7:58 am 07:58 Sunny 43 6.3 33 0.6 67 67 S 17 28 30.05 1018 10 16 N/A
8:58 am 08:58 Sunny 48 8.8 32 -0.1 54 54 SSE 24 39 30.01 1016 10 16 N/A
9:58 am 09:58 Sunny 51 10.8 32 undefined 48 48 S 20 31 30.01 1016 10 16 N/A
10:58 am 10:58 Sunny 55 12.9 33 0.6 43 43 S 20 31 30.00 1016 10 16 N/A
11:58 am 11:58 Sunny 58 14.6 33 0.5 38 38 SSE 22 35 29.96 1015 10 16 N/A
12:58 pm 12:58 Sunny 62 16.9 32 0.2 32 32 SSE 20 31 29.93 1014 10 16 N/A
1:58 pm 13:58 Sunny 65 18.5 32 undefined 29 29 SSE 24 39 29.91 1013 10 16 N/A
2:58 pm 14:58 Sunny 69 20.3 32 0.1 26 26 SSE 26 43 29.88 1012 10 16 N/A
3:58 pm 15:58 Sunny 71 21.7 33 0.4 24 24 S 22 35 29.86 1011 10 16 N/A
4:58 pm 16:58 Sunny 70 21.1 32 -0.2 24 24 SSE 28 44 29.85 1011 10 16 N/A
5:58 pm 17:58 Sunny 69 20.4 32 -0.1 25 25 SSE 29 46 29.83 1010 10 16 N/A
6:58 pm 18:58 Sunny 66 18.8 32 0.1 29 29 SSE 24 39 29.83 1010 10 16 N/A
7:58 pm 19:58 Clear 62 16.7 33 0.8 34 34 SSE 17 28 29.82 1010 10 16 N/A
8:58 pm 20:58 Clear 58 14.7 35 1.8 42 42 SSE 15 24 29.84 1010 10 16 N/A
9:58 pm 21:58 Clear 54 12.2 37 2.6 52 52 SE 17 28 29.85 1011 10 16 N/A
10:58 pm 22:58 Clear 54 12.1 37 2.5 52 52 SSE 21 33 29.85 1011 10 16 N/A
11:58 pm 23:58 Clear 51 10.7 37 2.7 58 58 SSE 18 30 29.82 1010 10 16 N/A

Powered by AerisWeather